[[{"header":{"parameterUnit":"m.s-1","parameterCategory":1,"la1":30.2991,"la2":30.254,"lo1":-89.0895,"lo2":-89.0444,"dy":0.0017,"dx":0.0017,"nx":28,"ny":28,"refTime":"2024-10-16T09:00:00:Z","depth":0,"parameterNumber":2,"parameterNumberName":"U-component_of_WINDS"},"data":[0,0,0,0,0,0,0,0,0,0,0,0,0,0,0,0,0,0,0,0,0,0,0,0,0,0,0,0,0,0,0,0,0,0,0,0,0,0,0,0,0,0,0,0,0,0,0,0,0,0,0,0,0,0,0,0,0,0,-2.0004,-2.0003,0,-1.997,-1.997,-1.997,-1.9908,-1.9906,-1.9905,-1.9904,-1.9871,-1.9872,-1.9872,0,0,0,0,0,0,0,0,0,0,0,0,0,-2.0016,-2.0016,-2.0004,-2.0003,-2.0003,-1.9971,-1.997,-1.997,-1.9908,-1.9906,-1.9905,-1.9904,-1.9871,-1.9872,-1.9872,0,0,0,0,0,0,0,0,0,0,0,0,0,-1.9999,-2.0016,-2.0004,-1.9968,-1.9965,-1.9971,-1.997,-1.9969,-1.9908,-1.9906,-1.9905,-1.9903,-1.9871,-1.9872,-1.9872,-1.991,0,0,-1.9873,-1.9873,0,0,0,0,0,0,0,0,-2.0,-1.9999,-1.9974,-1.9971,-1.9967,-1.9941,-1.9962,-1.995,-1.9909,-1.993,-1.9904,-1.9902,-1.9896,-1.9894,-1.9892,-1.9909,-1.9907,-1.9873,-1.9873,-1.9873,-1.9874,0,0,0,0,0,0,0,-2.0002,-2.0,-1.9991,-1.9974,-1.9969,-1.9954,-1.995,-1.9959,-1.9924,-1.9928,-1.9923,-1.992,-1.9894,-1.9892,-1.9891,-1.9907,-1.9873,-1.9873,-1.9874,-1.9874,-1.9954,-1.9956,0,0,0,0,0,0,-2.0008,-2.0001,-1.9992,-1.999,-1.9979,-1.9956,-1.9951,-1.9951,-1.9923,-1.9917,-1.9922,-1.9917,-1.9892,-1.9891,-1.989,-1.9934,-1.9873,-1.9874,-1.9874,-1.9952,-1.9955,-1.9957,0,0,0,0,0,0,-2.0008,-2.0007,-1.9993,-1.9994,-1.9991,-1.9957,-1.9959,-1.9952,-1.995,-1.9919,-1.9912,-1.9926,-1.9891,-1.9889,-1.9906,-1.9932,-1.9874,-1.9874,-1.995,-1.9953,-1.9956,-2.0022,0,0,0,0,0,0,-2.0009,-2.0008,-2.0022,-1.9995,-1.9991,-2.001,-1.996,-1.9952,-1.995,-1.9944,-1.9921,-1.9916,-1.9889,-1.9906,-1.9906,-1.9931,-1.9875,-1.9948,-1.9951,-1.9955,-2.0017,-2.0026,-2.0035,0,0,0,0,0,-2.0009,-2.0042,-2.0023,-2.0022,-2.0008,-2.0011,-2.0009,-1.9978,-1.9953,-1.9967,-1.9947,-1.9916,-1.9928,-1.9908,-1.9908,-1.9933,-1.9946,-1.995,-1.9955,-2.0013,-2.0025,-2.0034,0,0,0,0,0,0,-2.0073,-2.0038,-2.0016,-2.0041,-2.003,-2.0001,-2.0018,-1.9991,-1.9987,-1.9981,-1.9943,-1.9938,-1.9961,-1.9948,-1.9926,-1.9969,-1.9932,-1.9937,-1.9977,-1.9988,-1.9996,-1.9999,-1.9875,0,0,0,0,0,-2.009,-2.0095,-2.0064,-2.0089,-2.0084,-2.0052,-2.0052,-2.0029,-2.0016,-2.0011,-1.9992,-1.9981,-1.9982,-1.9984,-1.9983,-2.0014,-2.0009,-2.0032,-2.0041,-2.0048,-2.0053,-2.007,-2.008,-1.9971,-1.9971,-1.9971,0,0,-2.0125,-2.0106,-2.0112,-2.0101,-2.0089,-2.0096,-2.0048,-2.0057,-2.0062,-2.0012,-2.0027,-2.0013,-1.9998,-2.0023,-2.0032,-2.0013,-2.0082,-2.0054,-2.006,-2.0061,-2.0075,-2.0086,-2.0095,-1.9974,-1.9973,-1.9973,0,0,-2.0193,-2.0178,-2.0198,-2.0187,-2.017,-2.0149,-2.0153,-2.0129,-2.0117,-2.0131,-2.0094,-2.01,-2.0102,-2.0094,-2.009,-2.0154,-2.0127,-2.0155,-2.0201,-2.0218,-2.0227,-2.0234,-2.0259,-2.0268,-2.0159,-2.016,-2.016,0,-2.0239,-2.0247,-2.0211,-2.0223,-2.022,-2.0174,-2.0194,-2.0186,-2.017,-2.0169,-2.0147,-2.015,-2.0137,-2.0159,-2.0175,-2.0173,-2.0178,-2.0158,-2.0228,-2.0235,-2.0242,-2.0265,-2.0274,-2.0163,-2.0163,-2.0163,-2.0162,0,-2.0305,-2.0311,-2.0329,-2.0315,-2.0313,-2.0329,-2.0297,-2.0299,-2.0276,-2.0257,-2.0273,-2.0255,-2.0251,-2.0254,-2.0231,-2.0274,-2.0262,-2.0235,-2.0197,-2.0256,-2.0277,-2.0286,-2.0169,-2.0167,-2.0166,-2.0165,0,0,-2.0413,-2.0378,-2.0385,-2.0379,-2.0357,-2.0361,-2.0375,-2.037,-2.0374,-2.0364,-2.0376,-2.0379,-2.0354,-2.035,-2.0325,-2.034,-2.0394,-2.0311,-2.031,-2.0328,-2.0441,-2.0463,-2.0474,-2.0375,-2.0376,-2.0378,-2.0443,0,-2.0477,-2.0498,-2.0467,-2.0496,-2.0502,-2.0459,-2.0471,-2.0459,-2.0442,-2.0445,-2.0425,-2.0429,-2.0395,-2.0392,-2.0404,-2.0385,-2.0417,-2.038,-2.0387,-2.0387,-2.0394,-2.0485,-2.0508,-2.057,-2.0451,-2.0452,-2.0453,0,-2.0554,-2.0549,-2.0578,-2.0555,-2.0556,-2.0568,-2.0561,-2.0564,-2.055,-2.0537,-2.0532,-2.0503,-2.0516,-2.0478,-2.0496,-2.0472,-2.0473,-2.0464,-2.0465,-2.0466,-2.0425,-2.049,-2.0589,-2.06,-2.0465,-2.0464,-2.0463,0,-2.0632,-2.0631,-2.0649,-2.0645,-2.0617,-2.0627,-2.0616,-2.06,-2.0599,-2.0594,-2.0593,-2.0589,-2.0587,-2.0585,-2.0557,-2.0532,-2.0579,-2.0538,-2.0569,-2.057,-2.0582,-2.0582,-2.0685,-2.058,-2.058,-2.058,-2.058,0,-2.0708,-2.0728,-2.0684,-2.0695,-2.0717,-2.0681,-2.0704,-2.0688,-2.0674,-2.0683,-2.0644,-2.0653,-2.0614,-2.0618,-2.0596,-2.0615,-2.0614,-2.0604,-2.0599,-2.0609,-2.061,-2.061,-2.0606,-2.0582,-2.0582,-2.0581,-2.0581,0,-2.0799,-2.077,-2.0787,-2.076,-2.0753,-2.0771,-2.0748,-2.0757,-2.0737,-2.0748,-2.0748,-2.0717,-2.0721,-2.0691,-2.0689,-2.0674,-2.0705,-2.069,-2.071,-2.0706,-2.0739,-2.0737,-2.0847,-2.086,-2.0745,-2.0746,-2.0747,0,-2.085,-2.0865,-2.0839,-2.0842,-2.0833,-2.0837,-2.0836,-2.0801,-2.0802,-2.0787,-2.0799,-2.0799,-2.0798,-2.0805,-2.0783,-2.0781,-2.0768,-2.0806,-2.0767,-2.0778,-2.0771,-2.0771,-2.0773,-2.0815,-2.0817,-2.0818,-2.0819,0,-2.0945,-2.093,-2.093,-2.0925,-2.0925,-2.092,-2.0912,-2.0916,-2.0878,-2.0881,-2.0884,-2.0882,-2.088,-2.0882,-2.0876,-2.0865,-2.0837,-2.0831,-2.0838,-2.085,-2.0861,-2.0857,-2.0734,-2.0829,-2.0828,-2.0827,-2.0827,-2.0826,-2.1019,-2.103,-2.1014,-2.1015,-2.1006,-2.0999,-2.1007,-2.0988,-2.099,-2.0985,-2.0964,-2.0971,-2.0957,-2.0946,-2.0938,-2.0944,-2.0925,-2.0935,-2.0938,-2.0942,-2.0949,-2.0859,-2.0942,-2.0942,-2.0942,-2.0941,-2.0941,0,-2.1113,-2.11,-2.1101,-2.1092,-2.1093,-2.1065,-2.1054,-2.1058,-2.1065,-2.1053,-2.1053,-2.1057,-2.1058,-2.1035,-2.1034,-2.1043,-2.1029,-2.1044,-2.1043,-2.1042,-2.0964,-2.0959,-2.1054,-2.1054,-2.1054,-2.1054,-2.1054,-2.1054,-2.1162,-2.118,-2.1163,-2.1177,-2.1163,-2.117,-2.1167,-2.1161,-2.1152,-2.1158,-2.1159,-2.1144,-2.1129,-2.1126,-2.1126,-2.1119,-2.1121,-2.114,-2.1129,-2.1058,-2.1047,-2.1037,-2.1032,-2.114,-2.114,-2.1206,-2.1207,-2.1207]},{"header":{"parameterUnit":"m.s-1","parameterCategory":1,"la1":30.2991,"la2":30.254,"lo1":-89.0895,"lo2":-89.0444,"dy":0.0017,"dx":0.0017,"nx":28,"ny":28,"refTime":"2024-10-16T09:00:00:Z","depth":0,"parameterNumber":3,"parameterNumberName":"V-component_of_WINDS"},"data":[0,0,0,0,0,0,0,0,0,0,0,0,0,0,0,0,0,0,0,0,0,0,0,0,0,0,0,0,0,0,0,0,0,0,0,0,0,0,0,0,0,0,0,0,0,0,0,0,0,0,0,0,0,0,0,0,0,0,-2.018,-2.0181,0,-2.0227,-2.0228,-2.0228,-2.0236,-2.0236,-2.0236,-2.0235,-2.0282,-2.0284,-2.0285,0,0,0,0,0,0,0,0,0,0,0,0,0,-2.0097,-2.0099,-2.018,-2.0181,-2.0181,-2.0227,-2.0228,-2.0228,-2.0237,-2.0236,-2.0236,-2.0235,-2.0282,-2.0284,-2.0285,0,0,0,0,0,0,0,0,0,0,0,0,0,-2.0138,-2.0099,-2.018,-2.0191,-2.0193,-2.0227,-2.0228,-2.0228,-2.0237,-2.0236,-2.0235,-2.0235,-2.0281,-2.0283,-2.0286,-2.0312,0,0,-2.0293,-2.0294,0,0,0,0,0,0,0,0,-2.0135,-2.0141,-2.0189,-2.019,-2.0192,-2.0225,-2.0216,-2.0256,-2.0237,-2.022,-2.0235,-2.0235,-2.0264,-2.0267,-2.0277,-2.0314,-2.0316,-2.0293,-2.0295,-2.0296,-2.0296,0,0,0,0,0,0,0,-2.0132,-2.0139,-2.0199,-2.019,-2.0192,-2.0193,-2.0198,-2.0223,-2.0244,-2.0221,-2.0222,-2.0227,-2.0264,-2.0275,-2.0279,-2.0317,-2.0293,-2.0295,-2.0297,-2.0298,-2.0379,-2.038,0,0,0,0,0,0,-2.0128,-2.0136,-2.0197,-2.02,-2.0162,-2.0195,-2.0201,-2.0215,-2.0244,-2.0248,-2.0228,-2.0228,-2.0271,-2.0276,-2.028,-2.0314,-2.0296,-2.0298,-2.0299,-2.0378,-2.0379,-2.038,0,0,0,0,0,0,-2.0126,-2.0133,-2.0195,-2.0168,-2.0177,-2.0197,-2.0213,-2.0216,-2.0227,-2.0249,-2.0253,-2.0235,-2.0271,-2.0277,-2.0305,-2.0316,-2.0299,-2.0301,-2.0377,-2.0379,-2.038,-2.0382,0,0,0,0,0,0,-2.0124,-2.0133,-2.0143,-2.0169,-2.0178,-2.0219,-2.0214,-2.0218,-2.0232,-2.0232,-2.0257,-2.0261,-2.0271,-2.0301,-2.0307,-2.0319,-2.0303,-2.0377,-2.0378,-2.0379,-2.0381,-2.0383,-2.0385,0,0,0,0,0,-2.0121,-2.0141,-2.0143,-2.0151,-2.0191,-2.022,-2.0225,-2.0237,-2.0232,-2.0243,-2.0257,-2.026,-2.0313,-2.0304,-2.031,-2.0324,-2.0376,-2.0378,-2.0379,-2.038,-2.0383,-2.0385,0,0,0,0,0,0,-2.0116,-2.0145,-2.0148,-2.0177,-2.0196,-2.0221,-2.0235,-2.0239,-2.0259,-2.0259,-2.0272,-2.0278,-2.0305,-2.0317,-2.0305,-2.0351,-2.0344,-2.0347,-2.0343,-2.0345,-2.0347,-2.0344,-2.0305,0,0,0,0,0,-2.0118,-2.0139,-2.0163,-2.0187,-2.0196,-2.0214,-2.0227,-2.0234,-2.0254,-2.0262,-2.0278,-2.0297,-2.0319,-2.0332,-2.0353,-2.0382,-2.0388,-2.0395,-2.0396,-2.0398,-2.0401,-2.0418,-2.0422,-2.0385,-2.0385,-2.0385,0,0,-2.0124,-2.0142,-2.0154,-2.0187,-2.0202,-2.0223,-2.0221,-2.0243,-2.0259,-2.0265,-2.0293,-2.0305,-2.0327,-2.0356,-2.037,-2.0367,-2.0412,-2.04,-2.0401,-2.0403,-2.042,-2.0424,-2.0427,-2.0386,-2.0386,-2.0386,0,0,-2.0145,-2.016,-2.0182,-2.0198,-2.0222,-2.0233,-2.0239,-2.0263,-2.0272,-2.03,-2.0305,-2.0324,-2.036,-2.0376,-2.0389,-2.0416,-2.042,-2.0422,-2.0433,-2.045,-2.0452,-2.0455,-2.0466,-2.047,-2.0425,-2.0425,-2.0425,0,-2.0148,-2.0181,-2.0193,-2.0216,-2.023,-2.0237,-2.026,-2.0274,-2.0303,-2.0313,-2.0309,-2.0356,-2.0371,-2.0404,-2.0411,-2.042,-2.0427,-2.042,-2.0451,-2.0454,-2.0457,-2.0467,-2.0471,-2.0425,-2.0425,-2.0425,-2.0425,0,-2.0185,-2.0208,-2.0222,-2.0251,-2.0267,-2.029,-2.0305,-2.032,-2.0326,-2.0338,-2.0366,-2.0385,-2.041,-2.0418,-2.0423,-2.0452,-2.045,-2.0448,-2.0442,-2.046,-2.0471,-2.0475,-2.0425,-2.0425,-2.0425,-2.0425,0,0,-2.0205,-2.0241,-2.0246,-2.026,-2.0286,-2.0304,-2.0327,-2.0352,-2.0365,-2.0384,-2.0404,-2.0434,-2.0433,-2.0448,-2.0455,-2.047,-2.0492,-2.0467,-2.0468,-2.0472,-2.0526,-2.0529,-2.0533,-2.0494,-2.0495,-2.0495,-2.0525,0,-2.0231,-2.0273,-2.0284,-2.032,-2.0341,-2.0348,-2.0368,-2.0386,-2.0398,-2.0418,-2.043,-2.0452,-2.0448,-2.0457,-2.0472,-2.0486,-2.0503,-2.0484,-2.0513,-2.0514,-2.051,-2.0538,-2.0541,-2.0568,-2.0529,-2.053,-2.053,0,-2.0266,-2.0287,-2.0325,-2.035,-2.0359,-2.0377,-2.0402,-2.042,-2.0441,-2.0449,-2.0465,-2.0471,-2.0495,-2.0487,-2.0521,-2.0507,-2.052,-2.0528,-2.053,-2.0534,-2.0525,-2.0545,-2.0577,-2.0582,-2.0536,-2.0536,-2.0535,0,-2.0279,-2.0317,-2.0345,-2.0356,-2.0385,-2.0398,-2.041,-2.0431,-2.0445,-2.0466,-2.0476,-2.0499,-2.0512,-2.053,-2.0542,-2.0534,-2.0575,-2.0567,-2.0583,-2.0583,-2.0593,-2.0592,-2.0628,-2.0598,-2.0598,-2.0597,-2.0597,0,-2.0307,-2.0331,-2.0351,-2.0369,-2.0395,-2.0408,-2.0433,-2.0446,-2.0464,-2.0484,-2.049,-2.0509,-2.0523,-2.0544,-2.0553,-2.0581,-2.0586,-2.0593,-2.0596,-2.0594,-2.0593,-2.0603,-2.0602,-2.0599,-2.0598,-2.0598,-2.0598,0,-2.0327,-2.0342,-2.0373,-2.0398,-2.0405,-2.0424,-2.0445,-2.0462,-2.0474,-2.0499,-2.0505,-2.0524,-2.0548,-2.0562,-2.0592,-2.0598,-2.063,-2.063,-2.0623,-2.0625,-2.064,-2.0639,-2.0686,-2.0693,-2.0656,-2.0656,-2.0656,0,-2.0345,-2.0364,-2.0391,-2.0405,-2.0418,-2.044,-2.0456,-2.0468,-2.0484,-2.051,-2.0524,-2.0549,-2.0569,-2.0608,-2.0624,-2.0647,-2.065,-2.0664,-2.0653,-2.0651,-2.0652,-2.0652,-2.0654,-2.0667,-2.0667,-2.0668,-2.0668,0,-2.0376,-2.0383,-2.0405,-2.0429,-2.0447,-2.0467,-2.0487,-2.0498,-2.0514,-2.0531,-2.0556,-2.0573,-2.0604,-2.0629,-2.0654,-2.0666,-2.067,-2.0671,-2.0676,-2.0675,-2.0671,-2.0675,-2.063,-2.067,-2.067,-2.067,-2.067,-2.0669,-2.0397,-2.0414,-2.0436,-2.0461,-2.0477,-2.0495,-2.0513,-2.0527,-2.0549,-2.0576,-2.0582,-2.0609,-2.063,-2.0663,-2.0677,-2.0698,-2.0695,-2.0702,-2.0705,-2.0707,-2.0708,-2.0666,-2.0702,-2.0702,-2.0702,-2.0702,-2.0702,0,-2.043,-2.0444,-2.0467,-2.0495,-2.0514,-2.0515,-2.0537,-2.0553,-2.0577,-2.0597,-2.0617,-2.0647,-2.0671,-2.0689,-2.0713,-2.0727,-2.073,-2.0733,-2.0734,-2.0737,-2.0708,-2.0702,-2.0731,-2.0731,-2.0731,-2.0731,-2.0731,-2.0731,-2.0449,-2.0479,-2.0488,-2.0526,-2.054,-2.0567,-2.058,-2.0597,-2.0612,-2.0645,-2.0666,-2.0677,-2.0696,-2.0722,-2.0745,-2.0749,-2.0759,-2.0763,-2.0768,-2.0741,-2.0738,-2.0736,-2.073,-2.0764,-2.0764,-2.0795,-2.0795,-2.0795]}]]